JAF14M GMFO-LFQQ

Flight info

Callsign JAF14M
Flight time 2h 44m
Altitude 36000
Route DIGEX UW700 IXIRI UM372 ESAMI M372 AMR M143 YES DCT DISVU/N0461F380 DCT LATEK DCT CHALA DCT BOKNO UN858 VANAD UN874 ARSAF DCT SULEX
Aircraft B738/M-SDE2E3FGHIRWXY/LB1

Departure

Time 2026-04-14 06:28
Airport Oujda Angads Airport (GMFO)

Arrival

Time 2026-04-14 09:13
Airport Lille Airport (LFQQ)
Time Latitude Longitude Altitude Speed Heading
2026-04-14 06:04 34.78603 -1.93911 1523 ft 0 kts 319°
2026-04-14 06:16 34.78594 -1.93901 1517 ft 3 kts 319°
2026-04-14 06:16 34.78578 -1.93885 1517 ft 3 kts 320°
2026-04-14 06:16 34.78563 -1.93870 1519 ft 2 kts 320°
2026-04-14 06:16 34.78557 -1.93864 1520 ft 1 kts 320°
2026-04-14 06:17 34.78556 -1.93863 1521 ft 1 kts 320°
2026-04-14 06:20 34.78562 -1.93865 1519 ft 2 kts 347°
2026-04-14 06:20 34.78573 -1.93838 1525 ft 6 kts 88°
2026-04-14 06:21 34.78593 -1.93776 1524 ft 10 kts 50°
2026-04-14 06:21 34.78655 -1.93714 1519 ft 14 kts 37°
2026-04-14 06:21 34.78747 -1.93629 1522 ft 17 kts 37°
2026-04-14 06:21 34.78841 -1.93548 1521 ft 16 kts 33°
2026-04-14 06:22 34.78934 -1.93474 1520 ft 16 kts 34°
2026-04-14 06:22 34.79027 -1.93399 1521 ft 19 kts 33°
2026-04-14 06:22 34.79154 -1.93296 1524 ft 24 kts 33°
2026-04-14 06:22 34.79298 -1.93221 1525 ft 23 kts 352°
2026-04-14 06:23 34.79410 -1.93346 1523 ft 22 kts 311°
2026-04-14 06:23 34.79509 -1.93485 1522 ft 21 kts 311°
2026-04-14 06:23 34.79606 -1.93619 1523 ft 21 kts 312°
2026-04-14 06:23 34.79700 -1.93749 1522 ft 20 kts 310°
2026-04-14 06:24 34.79793 -1.93880 1524 ft 21 kts 311°
2026-04-14 06:24 34.79908 -1.94041 1522 ft 29 kts 311°
2026-04-14 06:24 34.80037 -1.94222 1522 ft 28 kts 311°
2026-04-14 06:24 34.80159 -1.94393 1525 ft 26 kts 311°
2026-04-14 06:25 34.80273 -1.94553 1519 ft 24 kts 311°
2026-04-14 06:25 34.80379 -1.94701 1525 ft 23 kts 311°
2026-04-14 06:25 34.80482 -1.94844 1524 ft 22 kts 311°
2026-04-14 06:25 34.80582 -1.94984 1521 ft 22 kts 311°
2026-04-14 06:26 34.80679 -1.95119 1522 ft 21 kts 311°
2026-04-14 06:26 34.80774 -1.95250 1525 ft 20 kts 311°
2026-04-14 06:26 34.80863 -1.95319 1525 ft 15 kts 18°
2026-04-14 06:26 34.80940 -1.95248 1520 ft 14 kts 45°
2026-04-14 06:27 34.80962 -1.95187 1526 ft 6 kts 117°
2026-04-14 06:27 34.80954 -1.95174 1523 ft 0 kts 128°
2026-04-14 06:28 34.80808 -1.94967 1524 ft 71 kts 131°
2026-04-14 06:28 34.80327 -1.94295 1525 ft 137 kts 131°
2026-04-14 06:28 34.79588 -1.93260 1696 ft 179 kts 131°
2026-04-14 06:28 34.78728 -1.92079 2386 ft 194 kts 137°
2026-04-14 06:29 34.77562 -1.91076 2798 ft 219 kts 165°
2026-04-14 06:29 34.76078 -1.90860 3447 ft 215 kts 188°
2026-04-14 06:29 34.74542 -1.91184 3612 ft 241 kts 202°
2026-04-14 06:29 34.72961 -1.92094 3958 ft 258 kts 220°
2026-04-14 06:30 34.71762 -1.93680 4713 ft 256 kts 245°
2026-04-14 06:30 34.71209 -1.95721 5467 ft 255 kts 265°
2026-04-14 06:30 34.70985 -1.97873 6270 ft 259 kts 266°
2026-04-14 06:30 34.70743 -2.00059 7027 ft 263 kts 266°
2026-04-14 06:31 34.70465 -2.02257 7757 ft 268 kts 265°
2026-04-14 06:31 34.70154 -2.04521 8479 ft 274 kts 265°
2026-04-14 06:31 34.69825 -2.06820 9225 ft 278 kts 265°
2026-04-14 06:31 34.69496 -2.09161 10038 ft 281 kts 269°
2026-04-14 06:32 34.69641 -2.11498 10584 ft 282 kts 291°
2026-04-14 06:32 34.70345 -2.13816 10773 ft 302 kts 296°
2026-04-14 06:32 34.71427 -2.16078 10924 ft 319 kts 315°
2026-04-14 06:32 34.73280 -2.17639 11077 ft 335 kts 338°
2026-04-14 06:33 34.75509 -2.18715 11232 ft 354 kts 339°
2026-04-14 06:33 34.77836 -2.19832 11587 ft 364 kts 339°
2026-04-14 06:33 34.80170 -2.20972 12190 ft 367 kts 338°
2026-04-14 06:34 34.84934 -2.23352 13433 ft 374 kts 338°
2026-04-14 06:34 34.87345 -2.24575 14064 ft 377 kts 338°
2026-04-14 06:34 34.89791 -2.25820 14716 ft 379 kts 338°
2026-04-14 06:34 34.92234 -2.27067 15309 ft 382 kts 338°
2026-04-14 06:35 34.94698 -2.28325 15906 ft 386 kts 338°
2026-04-14 06:35 34.97154 -2.29581 16450 ft 390 kts 338°
2026-04-14 06:35 34.99671 -2.30868 16954 ft 395 kts 338°
2026-04-14 06:35 35.01392 -2.31749 17344 ft 397 kts 338°
2026-04-14 06:36 35.03937 -2.33053 17917 ft 399 kts 338°
2026-04-14 06:36 35.06513 -2.34372 18455 ft 403 kts 338°
2026-04-14 06:36 35.09111 -2.35703 18938 ft 405 kts 338°
2026-04-14 06:36 35.11676 -2.37159 19445 ft 408 kts 332°
2026-04-14 06:37 35.14056 -2.39066 19954 ft 411 kts 324°
2026-04-14 06:37 35.16194 -2.41405 20455 ft 415 kts 317°
2026-04-14 06:37 35.18237 -2.43909 20930 ft 417 kts 317°
2026-04-14 06:37 35.20496 -2.46117 21294 ft 417 kts 334°
2026-04-14 06:38 35.23205 -2.47191 21751 ft 416 kts 350°
2026-04-14 06:38 35.26089 -2.47505 22281 ft 416 kts
2026-04-14 06:38 35.28985 -2.47214 22707 ft 419 kts
2026-04-14 06:38 35.31889 -2.46801 23110 ft 421 kts
2026-04-14 06:39 35.34807 -2.46359 23494 ft 423 kts
2026-04-14 06:39 35.37739 -2.45918 23880 ft 425 kts
2026-04-14 06:39 35.40680 -2.45489 24240 ft 425 kts
2026-04-14 06:39 35.43619 -2.45072 24609 ft 426 kts
2026-04-14 06:40 35.46570 -2.44663 24957 ft 426 kts
2026-04-14 06:40 35.49524 -2.44260 25304 ft 427 kts
2026-04-14 06:40 35.52482 -2.43860 25651 ft 427 kts
2026-04-14 06:40 35.55437 -2.43461 25967 ft 428 kts
2026-04-14 06:41 35.58409 -2.43060 26263 ft 429 kts
2026-04-14 06:41 35.61330 -2.42666 26610 ft 427 kts
2026-04-14 06:41 35.64279 -2.42267 27040 ft 424 kts
2026-04-14 06:41 35.67201 -2.41871 27497 ft 421 kts
2026-04-14 06:42 35.70107 -2.41477 27943 ft 418 kts
2026-04-14 06:42 35.72987 -2.41086 28369 ft 416 kts
2026-04-14 06:42 35.75851 -2.40697 28830 ft 413 kts
2026-04-14 06:42 35.78698 -2.40310 29312 ft 410 kts
2026-04-14 06:43 35.81526 -2.39926 29772 ft 407 kts
2026-04-14 06:43 35.84335 -2.39544 30204 ft 405 kts
2026-04-14 06:43 35.87130 -2.39163 30601 ft 402 kts
2026-04-14 06:43 35.89890 -2.38787 31072 ft 397 kts
2026-04-14 06:44 35.92580 -2.38420 31579 ft 391 kts
2026-04-14 06:44 35.95264 -2.38053 32091 ft 385 kts
2026-04-14 06:44 35.97911 -2.37692 32545 ft 381 kts
2026-04-14 06:44 36.00528 -2.37334 32970 ft 377 kts
2026-04-14 06:45 36.03129 -2.36979 33397 ft 373 kts
2026-04-14 06:45 36.05701 -2.36628 33837 ft 369 kts
2026-04-14 06:45 36.08212 -2.36284 34248 ft 365 kts
2026-04-14 06:45 36.10738 -2.35938 34532 ft 364 kts
2026-04-14 06:46 36.15765 -2.35250 35040 ft 363 kts
2026-04-14 06:46 36.18281 -2.34904 35198 ft 366 kts
2026-04-14 06:47 36.23394 -2.34203 35377 ft 372 kts
2026-04-14 06:47 36.25979 -2.33847 35503 ft 374 kts
2026-04-14 06:47 36.28564 -2.33491 35664 ft 374 kts
2026-04-14 06:47 36.31155 -2.33134 35822 ft 375 kts
2026-04-14 06:48 36.33749 -2.32777 35973 ft 375 kts
2026-04-14 06:48 36.36349 -2.32418 36121 ft 376 kts
2026-04-14 06:48 36.38954 -2.32059 36151 ft 378 kts
2026-04-14 06:49 36.44191 -2.31335 36156 ft 377 kts
2026-04-14 06:49 36.49397 -2.30614 36164 ft 375 kts
2026-04-14 06:50 36.54543 -2.29902 36159 ft 374 kts
2026-04-14 06:50 36.59713 -2.29185 36158 ft 373 kts
2026-04-14 06:51 36.64902 -2.28464 36171 ft 378 kts
2026-04-14 06:51 36.70173 -2.27731 36168 ft 382 kts
2026-04-14 06:52 36.75469 -2.26993 36159 ft 383 kts
2026-04-14 06:52 36.80743 -2.26258 36156 ft 383 kts
2026-04-14 06:53 36.86062 -2.26026 36160 ft 382 kts 357°
2026-04-14 06:53 36.91377 -2.26409 36149 ft 382 kts 357°
2026-04-14 06:54 36.96683 -2.26779 36155 ft 381 kts 357°
2026-04-14 06:54 37.01971 -2.27135 36162 ft 380 kts 358°
2026-04-14 06:55 37.07246 -2.27485 36158 ft 379 kts 358°
2026-04-14 06:55 37.12512 -2.27835 36168 ft 378 kts 358°
2026-04-14 06:56 37.17731 -2.28182 36168 ft 377 kts 358°
2026-04-14 06:56 37.22978 -2.28531 36200 ft 377 kts 358°
2026-04-14 06:57 37.28234 -2.28882 36183 ft 378 kts 358°
2026-04-14 06:57 37.33483 -2.29201 36167 ft 376 kts 358°
2026-04-14 06:58 37.38680 -2.29461 36181 ft 375 kts 359°
2026-04-14 06:58 37.43868 -2.29723 36205 ft 373 kts 359°
2026-04-14 06:59 37.49069 -2.29992 36186 ft 374 kts 359°
2026-04-14 06:59 37.54281 -2.30264 36205 ft 376 kts 358°
2026-04-14 07:00 37.59511 -2.30538 36209 ft 377 kts 358°
2026-04-14 07:00 37.64763 -2.30822 36214 ft 378 kts 358°
2026-04-14 07:01 37.70026 -2.31150 36206 ft 379 kts 358°
2026-04-14 07:01 37.75255 -2.31481 36214 ft 378 kts 358°
2026-04-14 07:02 37.80523 -2.31811 36203 ft 378 kts 358°
2026-04-14 07:02 37.85780 -2.32140 36209 ft 377 kts 358°
2026-04-14 07:03 37.90993 -2.32465 36208 ft 377 kts 358°
2026-04-14 07:03 37.96229 -2.32793 36203 ft 377 kts 358°
2026-04-14 07:04 38.01465 -2.33120 36204 ft 377 kts 358°
2026-04-14 07:04 38.06702 -2.33448 36211 ft 377 kts 358°
2026-04-14 07:05 38.11960 -2.33779 36217 ft 378 kts 358°
2026-04-14 07:05 38.17187 -2.34107 36199 ft 377 kts 358°
2026-04-14 07:06 38.22447 -2.34438 36214 ft 378 kts 358°
2026-04-14 07:06 38.27716 -2.34770 36213 ft 379 kts 358°
2026-04-14 07:07 38.33003 -2.35077 36219 ft 380 kts
2026-04-14 07:07 38.38244 -2.34266 36209 ft 381 kts 11°
2026-04-14 07:08 38.43316 -2.32175 36204 ft 384 kts 16°
2026-04-14 07:08 38.48327 -2.29925 36204 ft 383 kts 16°
2026-04-14 07:09 38.53362 -2.27668 36216 ft 383 kts 16°
2026-04-14 07:09 38.58386 -2.25424 36203 ft 382 kts 16°
2026-04-14 07:10 38.63408 -2.23184 36202 ft 381 kts 16°
2026-04-14 07:10 38.68418 -2.20952 36191 ft 381 kts 16°
2026-04-14 07:11 38.73422 -2.18719 36198 ft 381 kts 16°
2026-04-14 07:11 38.78427 -2.16482 36195 ft 381 kts 16°
2026-04-14 07:12 38.83430 -2.14241 36193 ft 381 kts 16°
2026-04-14 07:12 38.88400 -2.12012 36190 ft 381 kts 16°
2026-04-14 07:13 38.93405 -2.09764 36185 ft 381 kts 16°
2026-04-14 07:13 38.98380 -2.07527 36184 ft 380 kts 16°
2026-04-14 07:14 39.03377 -2.05275 36189 ft 380 kts 16°
2026-04-14 07:14 39.08368 -2.03023 36186 ft 380 kts 16°
2026-04-14 07:15 39.13370 -2.00763 36186 ft 380 kts 15°
2026-04-14 07:15 39.18363 -1.98504 36183 ft 380 kts 15°
2026-04-14 07:16 39.23360 -1.96239 36179 ft 380 kts 15°
2026-04-14 07:16 39.28352 -1.93974 36178 ft 380 kts 15°
2026-04-14 07:17 39.33312 -1.91719 36169 ft 380 kts 15°
2026-04-14 07:17 39.38301 -1.89448 36178 ft 381 kts 15°
2026-04-14 07:18 39.43309 -1.87165 36168 ft 381 kts 15°
2026-04-14 07:18 39.48304 -1.84884 36165 ft 381 kts 15°
2026-04-14 07:19 39.53310 -1.82594 36160 ft 381 kts 15°
2026-04-14 07:19 39.58305 -1.80305 36178 ft 380 kts 15°
2026-04-14 07:20 39.62448 -1.78405 36157 ft 379 kts 15°
2026-04-14 07:20 39.68230 -1.75748 36162 ft 378 kts 15°
2026-04-14 07:21 39.73185 -1.73468 36154 ft 377 kts 15°
2026-04-14 07:21 39.78126 -1.71191 36154 ft 376 kts 15°
2026-04-14 07:22 39.82227 -1.69300 36152 ft 376 kts 15°
2026-04-14 07:22 39.87159 -1.67020 36144 ft 376 kts 15°
2026-04-14 07:23 39.92095 -1.64735 36146 ft 376 kts 15°
2026-04-14 07:23 39.97032 -1.62446 36148 ft 377 kts 16°
2026-04-14 07:24 40.01947 -1.60164 36142 ft 376 kts 16°
2026-04-14 07:24 40.06892 -1.57865 36143 ft 378 kts 16°
2026-04-14 07:25 40.11848 -1.55557 36156 ft 378 kts 16°
2026-04-14 07:25 40.16816 -1.53240 36162 ft 379 kts 16°
2026-04-14 07:26 40.21802 -1.50911 36161 ft 380 kts 16°
2026-04-14 07:26 40.26757 -1.48592 36148 ft 381 kts 16°
2026-04-14 07:27 40.31762 -1.46246 36156 ft 381 kts 16°
2026-04-14 07:27 40.36731 -1.43914 36155 ft 381 kts 16°
2026-04-14 07:28 40.41736 -1.41561 36160 ft 382 kts 16°
2026-04-14 07:28 40.46745 -1.39203 36155 ft 382 kts 16°
2026-04-14 07:29 40.51746 -1.36843 36163 ft 382 kts 16°
2026-04-14 07:29 40.56749 -1.34480 36162 ft 382 kts 16°
2026-04-14 07:30 40.61759 -1.32109 36163 ft 382 kts 16°
2026-04-14 07:30 40.66759 -1.29740 36172 ft 382 kts 16°
2026-04-14 07:31 40.71726 -1.27382 36170 ft 381 kts 16°
2026-04-14 07:31 40.76798 -1.25465 36178 ft 378 kts
2026-04-14 07:32 40.81968 -1.24069 36171 ft 379 kts
2026-04-14 07:32 40.87131 -1.22676 36172 ft 379 kts
2026-04-14 07:33 40.92299 -1.21263 36171 ft 379 kts
2026-04-14 07:33 40.97422 -1.19852 36169 ft 378 kts
2026-04-14 07:34 41.07723 -1.17001 36168 ft 378 kts
2026-04-14 07:35 41.12869 -1.15573 36152 ft 377 kts
2026-04-14 07:35 41.18013 -1.14143 36170 ft 379 kts
2026-04-14 07:36 41.23157 -1.12712 36153 ft 381 kts
2026-04-14 07:36 41.28353 -1.11264 36145 ft 382 kts
2026-04-14 07:37 41.33564 -1.09808 36154 ft 382 kts
2026-04-14 07:37 41.38780 -1.08348 36146 ft 383 kts
2026-04-14 07:38 41.44012 -1.06882 36139 ft 384 kts
2026-04-14 07:38 41.49208 -1.05423 36139 ft 384 kts
2026-04-14 07:39 41.54433 -1.03954 36124 ft 384 kts
2026-04-14 07:39 41.59660 -1.02482 36132 ft 383 kts
2026-04-14 07:40 41.64887 -1.01008 36129 ft 384 kts
2026-04-14 07:40 41.70113 -0.99532 36128 ft 384 kts
2026-04-14 07:41 41.75342 -0.98051 36135 ft 383 kts
2026-04-14 07:41 41.80562 -0.96572 36133 ft 383 kts
2026-04-14 07:42 41.85779 -0.95091 36130 ft 383 kts
2026-04-14 07:42 41.90968 -0.93615 36127 ft 383 kts
2026-04-14 07:43 41.96188 -0.92127 36130 ft 383 kts
2026-04-14 07:43 42.01409 -0.90638 36118 ft 383 kts
2026-04-14 07:44 42.06631 -0.89145 36118 ft 384 kts
2026-04-14 07:44 42.11819 -0.87660 36119 ft 383 kts
2026-04-14 07:45 42.17041 -0.86162 36116 ft 383 kts
2026-04-14 07:45 42.22253 -0.84664 36136 ft 382 kts
2026-04-14 07:46 42.27469 -0.83164 36122 ft 382 kts
2026-04-14 07:46 42.32638 -0.81673 36134 ft 382 kts
2026-04-14 07:47 42.37845 -0.80170 36129 ft 382 kts
2026-04-14 07:47 42.43043 -0.78670 36120 ft 382 kts
2026-04-14 07:48 42.48249 -0.77159 36138 ft 383 kts
2026-04-14 07:48 42.53475 -0.75642 36138 ft 386 kts
2026-04-14 07:49 42.58746 -0.74109 36141 ft 388 kts
2026-04-14 07:49 42.64029 -0.72570 36143 ft 389 kts
2026-04-14 07:50 42.69336 -0.71012 36135 ft 390 kts
2026-04-14 07:50 42.74627 -0.69472 36160 ft 392 kts
2026-04-14 07:51 42.79971 -0.67910 36148 ft 393 kts
2026-04-14 07:51 42.85343 -0.66335 36169 ft 395 kts
2026-04-14 07:52 42.90715 -0.64738 36164 ft 395 kts 10°
2026-04-14 07:52 42.96079 -0.63098 36174 ft 394 kts 10°
2026-04-14 07:53 43.01423 -0.61458 36167 ft 392 kts 10°
2026-04-14 07:53 43.06714 -0.59835 36189 ft 392 kts
2026-04-14 07:54 43.12043 -0.58200 36211 ft 392 kts
2026-04-14 07:54 43.17371 -0.56563 36200 ft 393 kts
2026-04-14 07:55 43.22704 -0.54922 36206 ft 392 kts
2026-04-14 07:55 43.28032 -0.53279 36217 ft 392 kts
2026-04-14 07:56 43.33352 -0.51636 36207 ft 392 kts
2026-04-14 07:56 43.38680 -0.49987 36207 ft 391 kts
2026-04-14 07:57 43.43998 -0.48339 36214 ft 391 kts
2026-04-14 07:57 43.49281 -0.46698 36211 ft 391 kts
2026-04-14 07:58 43.54601 -0.45043 36205 ft 392 kts
2026-04-14 07:58 43.59914 -0.43387 36211 ft 391 kts
2026-04-14 07:59 43.65235 -0.41726 36207 ft 392 kts
2026-04-14 07:59 43.70525 -0.40071 36213 ft 392 kts
2026-04-14 08:00 43.75875 -0.38395 36398 ft 393 kts
2026-04-14 08:00 43.78547 -0.37556 36708 ft 391 kts
2026-04-14 08:00 43.81204 -0.36721 36869 ft 393 kts
2026-04-14 08:00 43.83875 -0.35882 36998 ft 394 kts
2026-04-14 08:01 43.86554 -0.35039 37194 ft 394 kts
2026-04-14 08:01 43.89222 -0.34199 37420 ft 393 kts
2026-04-14 08:01 43.91856 -0.33368 37647 ft 392 kts 10°
2026-04-14 08:01 43.94515 -0.32529 37842 ft 392 kts 10°
2026-04-14 08:02 43.97185 -0.31685 38016 ft 393 kts 10°
2026-04-14 08:02 43.99851 -0.30843 38193 ft 392 kts 10°
2026-04-14 08:02 44.02524 -0.29997 38202 ft 395 kts 10°
2026-04-14 08:03 44.07888 -0.28298 38213 ft 394 kts
2026-04-14 08:03 44.13219 -0.26604 38220 ft 392 kts
2026-04-14 08:04 44.18522 -0.24918 38222 ft 390 kts
2026-04-14 08:04 44.23813 -0.23232 38225 ft 390 kts
2026-04-14 08:05 44.29104 -0.21544 38223 ft 390 kts
2026-04-14 08:05 44.34364 -0.19862 38222 ft 390 kts
2026-04-14 08:06 44.39655 -0.18167 38223 ft 390 kts
2026-04-14 08:06 44.44960 -0.16464 38228 ft 391 kts
2026-04-14 08:07 44.50264 -0.14759 38221 ft 391 kts
2026-04-14 08:07 44.55577 -0.13048 38217 ft 391 kts
2026-04-14 08:08 44.60876 -0.11336 38220 ft 391 kts
2026-04-14 08:08 44.66157 -0.09628 38214 ft 391 kts
2026-04-14 08:09 44.71465 -0.07909 38213 ft 391 kts
2026-04-14 08:09 44.76772 -0.06186 38215 ft 391 kts
2026-04-14 08:10 44.81176 -0.04754 38213 ft 391 kts
2026-04-14 08:10 44.87337 -0.02754 38216 ft 390 kts
2026-04-14 08:11 44.92636 -0.01034 38224 ft 391 kts
2026-04-14 08:11 44.97057 0.00413 38229 ft 393 kts 10°
2026-04-14 08:12 45.02396 0.02224 38218 ft 395 kts 10°
2026-04-14 08:12 45.07772 0.03954 38217 ft 397 kts
2026-04-14 08:13 45.13181 0.05713 38214 ft 398 kts
2026-04-14 08:13 45.18556 0.07488 38218 ft 399 kts
2026-04-14 08:14 45.23971 0.09279 38213 ft 400 kts
2026-04-14 08:14 45.29391 0.11074 38221 ft 400 kts
2026-04-14 08:15 45.34815 0.12871 38213 ft 400 kts
2026-04-14 08:15 45.40238 0.14639 38213 ft 399 kts
2026-04-14 08:16 45.45624 0.16366 38209 ft 399 kts
2026-04-14 08:16 45.51039 0.18107 38210 ft 399 kts
2026-04-14 08:17 45.56448 0.19854 38212 ft 398 kts
2026-04-14 08:17 45.61857 0.21606 38207 ft 398 kts
2026-04-14 08:18 45.67259 0.23360 38202 ft 398 kts
2026-04-14 08:18 45.72627 0.25107 38210 ft 397 kts
2026-04-14 08:19 45.78021 0.26865 38213 ft 397 kts
2026-04-14 08:19 45.83414 0.28627 38210 ft 397 kts
2026-04-14 08:20 45.88800 0.30389 38208 ft 396 kts
2026-04-14 08:20 45.94173 0.32152 38208 ft 396 kts
2026-04-14 08:21 45.99548 0.33918 38205 ft 396 kts
2026-04-14 08:21 46.04879 0.35673 38199 ft 396 kts
2026-04-14 08:22 46.10260 0.37448 38201 ft 396 kts
2026-04-14 08:22 46.15627 0.39222 38199 ft 395 kts
2026-04-14 08:23 46.21010 0.41003 38210 ft 398 kts
2026-04-14 08:23 46.26422 0.42800 38205 ft 400 kts
2026-04-14 08:24 46.31854 0.44607 38202 ft 401 kts
2026-04-14 08:24 46.37299 0.46423 38208 ft 402 kts
2026-04-14 08:25 46.42752 0.48244 38207 ft 403 kts
2026-04-14 08:25 46.48181 0.50060 38208 ft 403 kts
2026-04-14 08:26 46.53642 0.51892 38207 ft 403 kts
2026-04-14 08:26 46.59106 0.53728 38214 ft 403 kts
2026-04-14 08:27 46.64578 0.55570 38209 ft 403 kts
2026-04-14 08:27 46.70045 0.57415 38207 ft 403 kts
2026-04-14 08:28 46.75478 0.59252 38210 ft 403 kts
2026-04-14 08:28 46.80956 0.61108 38205 ft 403 kts
2026-04-14 08:29 46.86424 0.62965 38203 ft 403 kts
2026-04-14 08:29 46.91893 0.64826 38204 ft 403 kts
2026-04-14 08:30 46.97355 0.66688 38205 ft 403 kts
2026-04-14 08:30 47.02784 0.68543 38200 ft 403 kts
2026-04-14 08:31 47.08283 0.69649 38213 ft 397 kts
2026-04-14 08:31 47.16571 0.70447 38194 ft 398 kts
2026-04-14 08:32 47.22097 0.71011 38190 ft 398 kts
2026-04-14 08:32 47.27630 0.71588 38188 ft 398 kts
2026-04-14 08:33 47.33161 0.72169 38188 ft 398 kts
2026-04-14 08:33 47.38661 0.72747 38189 ft 398 kts 360°
2026-04-14 08:34 47.44200 0.73330 38184 ft 399 kts
2026-04-14 08:34 47.49737 0.74122 38177 ft 403 kts
2026-04-14 08:35 47.55147 0.76541 38189 ft 408 kts 13°
2026-04-14 08:35 47.60534 0.79241 38211 ft 408 kts 12°
2026-04-14 08:36 47.65897 0.81898 38203 ft 409 kts 12°
2026-04-14 08:36 47.71297 0.84561 38220 ft 410 kts 13°
2026-04-14 08:37 47.76723 0.87242 38193 ft 411 kts 13°
2026-04-14 08:37 47.82161 0.89935 38196 ft 412 kts 13°
2026-04-14 08:38 47.87613 0.92659 38192 ft 413 kts 13°
2026-04-14 08:38 47.93030 0.95402 38196 ft 414 kts 13°
2026-04-14 08:39 47.98480 0.98167 38199 ft 414 kts 13°
2026-04-14 08:39 48.03944 1.00943 38201 ft 415 kts 13°
2026-04-14 08:40 48.09405 1.03722 38194 ft 415 kts 13°
2026-04-14 08:40 48.14881 1.06514 38198 ft 415 kts 13°
2026-04-14 08:41 48.20354 1.09312 38198 ft 415 kts 13°
2026-04-14 08:41 48.25827 1.12104 38195 ft 416 kts 13°
2026-04-14 08:42 48.31313 1.14897 38189 ft 416 kts 13°
2026-04-14 08:42 48.36803 1.17701 38189 ft 417 kts 13°
2026-04-14 08:43 48.42291 1.20512 38187 ft 417 kts 13°
2026-04-14 08:43 48.47790 1.23335 38191 ft 418 kts 13°
2026-04-14 08:44 48.53263 1.26145 38192 ft 418 kts 12°
2026-04-14 08:44 48.58775 1.28952 38188 ft 418 kts 12°
2026-04-14 08:45 48.64302 1.31727 38195 ft 419 kts 13°
2026-04-14 08:45 48.69851 1.34525 38191 ft 420 kts 13°
2026-04-14 08:46 48.75365 1.37318 38187 ft 420 kts 13°
2026-04-14 08:46 48.80906 1.40133 38192 ft 420 kts 13°
2026-04-14 08:47 48.86455 1.42958 38188 ft 419 kts 13°
2026-04-14 08:47 48.91984 1.45777 38191 ft 419 kts 13°
2026-04-14 08:48 48.97264 1.49680 38196 ft 429 kts 28°
2026-04-14 08:48 49.01824 1.55731 38202 ft 441 kts 41°
2026-04-14 08:49 49.05876 1.62729 38192 ft 443 kts 42°
2026-04-14 08:49 49.09940 1.69822 38194 ft 444 kts 41°
2026-04-14 08:50 49.14036 1.76901 38218 ft 445 kts 42°
2026-04-14 08:50 49.18101 1.83917 38179 ft 430 kts 41°
2026-04-14 08:51 49.20045 1.87284 38174 ft 415 kts 41°
2026-04-14 08:51 49.21927 1.90544 38067 ft 403 kts 41°
2026-04-14 08:51 49.23651 1.93524 37796 ft 398 kts 41°
2026-04-14 08:51 49.25562 1.96822 37077 ft 402 kts 41°
2026-04-14 08:52 49.27446 2.00069 36008 ft 415 kts 41°
2026-04-14 08:52 49.29358 2.03379 35056 ft 425 kts 41°
2026-04-14 08:52 49.31330 2.06810 34142 ft 433 kts 41°
2026-04-14 08:52 49.33329 2.10297 33193 ft 438 kts 41°
2026-04-14 08:53 49.35387 2.13745 32298 ft 437 kts 37°
2026-04-14 08:53 49.37678 2.16752 31463 ft 432 kts 31°
2026-04-14 08:53 49.40049 2.19572 30679 ft 431 kts 31°
2026-04-14 08:53 49.42435 2.22372 29775 ft 432 kts 31°
2026-04-14 08:54 49.44829 2.25186 28759 ft 433 kts 32°
2026-04-14 08:54 49.47225 2.28026 27561 ft 437 kts 32°
2026-04-14 08:54 49.49650 2.30922 26210 ft 446 kts 33°
2026-04-14 08:54 49.52119 2.33893 24977 ft 453 kts 34°
2026-04-14 08:55 49.54608 2.36904 24122 ft 452 kts 35°
2026-04-14 08:55 49.56235 2.38881 23545 ft 450 kts 35°
2026-04-14 08:55 49.59504 2.42859 22433 ft 443 kts 36°
2026-04-14 08:55 49.61879 2.45752 21679 ft 438 kts 36°
2026-04-14 08:56 49.64252 2.48642 20953 ft 432 kts 36°
2026-04-14 08:56 49.66599 2.51502 20236 ft 428 kts 36°
2026-04-14 08:56 49.68920 2.54332 19535 ft 424 kts 36°
2026-04-14 08:56 49.71224 2.57145 18812 ft 421 kts 36°
2026-04-14 08:57 49.73514 2.59945 18031 ft 419 kts 36°
2026-04-14 08:57 49.75789 2.62730 17271 ft 415 kts 37°
2026-04-14 08:57 49.78039 2.65489 16552 ft 411 kts 37°
2026-04-14 08:57 49.80266 2.68225 15851 ft 407 kts 37°
2026-04-14 08:58 49.82480 2.70947 15157 ft 404 kts 37°
2026-04-14 08:58 49.84667 2.73637 14467 ft 400 kts 37°
2026-04-14 08:58 49.86842 2.76318 13733 ft 398 kts 37°
2026-04-14 08:58 49.88275 2.78086 13237 ft 395 kts 37°
2026-04-14 08:59 49.90418 2.80732 12519 ft 391 kts 37°
2026-04-14 08:59 49.92538 2.83351 11771 ft 388 kts 37°
2026-04-14 08:59 49.94627 2.85936 11394 ft 377 kts 37°
2026-04-14 08:59 49.96639 2.88429 11163 ft 363 kts 37°
2026-04-14 09:00 49.98580 2.90835 10984 ft 348 kts 37°
2026-04-14 09:00 50.00515 2.92968 10799 ft 334 kts 27°
2026-04-14 09:00 50.02614 2.94410 10547 ft 325 kts 20°
2026-04-14 09:00 50.04675 2.95706 10388 ft 314 kts 20°
2026-04-14 09:01 50.06671 2.96965 10233 ft 304 kts 20°
2026-04-14 09:01 50.08574 2.98176 10159 ft 292 kts 20°
2026-04-14 09:01 50.10416 2.99355 10142 ft 279 kts 20°
2026-04-14 09:01 50.12209 3.00508 9753 ft 280 kts 21°
2026-04-14 09:02 50.14025 3.01678 9327 ft 283 kts 21°
2026-04-14 09:02 50.15841 3.02853 8998 ft 282 kts 21°
2026-04-14 09:02 50.17650 3.04027 8663 ft 281 kts 21°
2026-04-14 09:02 50.19454 3.05199 8327 ft 280 kts 21°
2026-04-14 09:03 50.21232 3.06356 8005 ft 279 kts 21°
2026-04-14 09:03 50.23027 3.07527 7684 ft 279 kts 21°
2026-04-14 09:03 50.24815 3.08693 7358 ft 278 kts 21°
2026-04-14 09:03 50.26597 3.09856 7053 ft 277 kts 21°
2026-04-14 09:04 50.28375 3.11019 6746 ft 277 kts 21°
2026-04-14 09:04 50.30154 3.12182 6419 ft 276 kts 22°
2026-04-14 09:04 50.31925 3.13341 6113 ft 275 kts 22°
2026-04-14 09:04 50.33681 3.14492 5830 ft 273 kts 22°
2026-04-14 09:05 50.35401 3.15620 5755 ft 263 kts 21°
2026-04-14 09:05 50.37055 3.16705 5680 ft 253 kts 22°
2026-04-14 09:05 50.38650 3.17753 5598 ft 244 kts 21°
2026-04-14 09:05 50.40184 3.18760 5427 ft 240 kts 21°
2026-04-14 09:06 50.41722 3.19771 5197 ft 239 kts 21°
2026-04-14 09:06 50.43229 3.20763 5122 ft 230 kts 21°
2026-04-14 09:06 50.44680 3.21718 5057 ft 219 kts 21°
2026-04-14 09:06 50.46058 3.22626 4911 ft 210 kts 21°
2026-04-14 09:07 50.47369 3.23489 4809 ft 198 kts 21°
2026-04-14 09:07 50.48599 3.24301 4728 ft 186 kts 21°
2026-04-14 09:07 50.49750 3.25059 4643 ft 173 kts 21°
2026-04-14 09:07 50.50815 3.25762 4503 ft 159 kts 21°
2026-04-14 09:08 50.51816 3.26420 4203 ft 157 kts 21°
2026-04-14 09:08 50.52821 3.27083 3875 ft 155 kts 21°
2026-04-14 09:08 50.53812 3.27737 3569 ft 151 kts 21°
2026-04-14 09:08 50.54783 3.28378 3179 ft 152 kts 22°
2026-04-14 09:09 50.55770 3.29030 3062 ft 156 kts 22°
2026-04-14 09:09 50.56751 3.29672 3007 ft 150 kts 22°
2026-04-14 09:09 50.57714 3.30285 2877 ft 149 kts 17°
2026-04-14 09:09 50.58702 3.30171 2836 ft 153 kts 328°
2026-04-14 09:10 50.59287 3.28793 2639 ft 157 kts 275°
2026-04-14 09:10 50.59022 3.27167 2383 ft 157 kts 243°
2026-04-14 09:10 50.58703 3.25499 1983 ft 161 kts 256°
2026-04-14 09:10 50.58484 3.23814 1617 ft 154 kts 256°
2026-04-14 09:11 50.58263 3.22166 1487 ft 151 kts 256°
2026-04-14 09:11 50.58014 3.20566 1311 ft 150 kts 252°
2026-04-14 09:11 50.57777 3.18941 1086 ft 151 kts 258°
2026-04-14 09:11 50.57581 3.17335 840 ft 148 kts 254°
2026-04-14 09:12 50.57339 3.15780 663 ft 143 kts 256°
2026-04-14 09:12 50.57133 3.14262 477 ft 142 kts 256°
2026-04-14 09:12 50.56915 3.12730 304 ft 145 kts 256°
2026-04-14 09:12 50.56697 3.11185 168 ft 140 kts 257°
2026-04-14 09:13 50.56513 3.09892 166 ft 99 kts 257°
2026-04-14 09:13 50.56420 3.09229 163 ft 28 kts 259°
2026-04-14 09:13 50.56480 3.09067 162 ft 19 kts 348°
2026-04-14 09:13 50.56589 3.09083 160 ft 15 kts 53°
2026-04-14 09:14 50.56621 3.09240 162 ft 15 kts 78°
2026-04-14 09:14 50.56641 3.09395 164 ft 14 kts 78°
2026-04-14 09:14 50.56668 3.09540 166 ft 14 kts 57°
2026-04-14 09:14 50.56754 3.09567 166 ft 13 kts 357°
2026-04-14 09:15 50.56819 3.09549 164 ft 6 kts 347°
2026-04-14 09:15 50.56838 3.09542 163 ft 0 kts 347°